This is the latest recevied weather packets stored in our database for station/object SQ9SMC-13. If no packets are shown the sender has not sent any weather packets the latest 10 day(s).
| Time | Temp. | Humidity | Pressure | Rain* | Wind** | Luminosity | Snow |
|---|---|---|---|---|---|---|---|
| 1777361403 | 8.33° C | 40% | 1026 hPa | 0 mm | - | 398 W/m² | - |
| 1777361105 | 8.33° C | 39% | 1025.8 hPa | 0 mm | - | 386 W/m² | - |
| 1777360803 | 8.33° C | 40% | 1026 hPa | 0 mm | - | 373 W/m² | - |
| 1777360503 | 8.33° C | 41% | 1025.9 hPa | 0 mm | - | 362 W/m² | - |
| 1777360205 | 7.78° C | 40% | 1025.9 hPa | 0 mm | - | 352 W/m² | - |
| 1777359904 | 7.22° C | 42% | 1025.9 hPa | 0 mm | - | 339 W/m² | - |
| 1777359606 | 7.22° C | 44% | 1025.9 hPa | 0 mm | - | 327 W/m² | - |
| 1777359303 | 7.22° C | 44% | 1025.9 hPa | 0 mm | - | 315 W/m² | - |
| 1777359005 | 7.22° C | 43% | 1026 hPa | 0 mm | - | 304 W/m² | - |
| 1777358706 | 7.22° C | 45% | 1025.9 hPa | 0 mm | - | 291 W/m² | - |
| 1777358403 | 7.22° C | 45% | 1026.1 hPa | 0 mm | - | 278 W/m² | - |
| 1777358104 | 7.22° C | 45% | 1025.9 hPa | 0 mm | - | 266 W/m² | - |
| 1777357806 | 7.22° C | 48% | 1025.9 hPa | 0 mm | - | 253 W/m² | - |
| 1777357504 | 6.67° C | 49% | 1025.9 hPa | 0 mm | - | 245 W/m² | - |
| 1777357204 | 6.11° C | 51% | 1026 hPa | 0 mm | - | 240 W/m² | - |
| 1777356904 | 5.56° C | 51% | 1025.9 hPa | 0 mm | - | 226 W/m² | - |
| 1777356603 | 5.56° C | 52% | 1026 hPa | 0 mm | - | 215 W/m² | - |
| 1777356302 | 5° C | 52% | 1025.9 hPa | 0 mm | - | 178 W/m² | - |
| 1777356003 | 4.44° C | 54% | 1025.9 hPa | 0 mm | - | 138 W/m² | - |
| 1777355705 | 5° C | 55% | 1025.9 hPa | 0 mm | - | 137 W/m² | - |
| 1777355403 | 5° C | 53% | 1026 hPa | 0 mm | - | 79 W/m² | - |
| 1777355103 | 5° C | 51% | 1025.8 hPa | 0 mm | - | 160 W/m² | - |
| 1777354803 | 5.56° C | 53% | 1025.9 hPa | 0 mm | - | 142 W/m² | - |
| 1777354504 | 5° C | 54% | 1025.9 hPa | 0 mm | - | 136 W/m² | - |
| 1777354207 | 4.44° C | 55% | 1025.7 hPa | 0 mm | - | 130 W/m² | - |
* Rain latest hour (hover to see other rain measurements)
** Current wind speed in m/s (hover to see current wind gust speed)